Вернуться в каталог

FENGYUN 1C DEB

LostSSO
NORAD 31662·DEBRIS·🇨🇳 China

Запущен May 10, 1999 с Taiyuan Satellite Launch Center

Loading…

Ближайшие Пролёты (ближайшие 24 часа)

TLE

УстаревшееSource: Space-Track

Эпоха: Aug 9, 2010, 17:31 UTC

1 31662U 99025CBU 10221.73015106 -.00000041  00000-0  15524-5 0  9990
2 31662  98.9687 199.0028 0048105  56.7627 302.2132 14.03367415171755

Отслеживайте FENGYUN 1C DEB в реальном времени с AllMySat

Download on the App Store